Regional Weather Roundup
Issued by NWS Green Bay, WI

Home | Current Version | Previous Version | Text Only | Print | Product List | Glossary On
Versions: 1 2 3 4 5 6 7 8 9 10 11 12 13 14 15 16 17 18 19 20 21 22 23 24 25 26 27 28 29 30 31 32 33 34 35 36 37 38 39 40 41 42 43 44 45 46 47 48 49 50
000
ASUS43 KGRB 132311
RWRGRB

NORTH-CENTRAL AND NORTHEAST WISCONSIN REGIONAL WEATHER ROUNDUP
NATIONAL WEATHER SERVICE GREEN BAY WI
500 PM CST WED DEC 13 2017

WIZ005-009-010>012-018-019-140000-
NORTH CENTRAL WISCONSIN

CITY           SKY/WX    TMP DP  RH WIND       PRES   REMARKS
IRONWOOD       FLURRIES  18  14  84 NE7       29.71R WCI   9
MANITOWISH WTR CLOUDY    15  13  94 N6        29.65R WCI   6
ARBOR VITAE    CLOUDY    17  13  86 N7        29.64R WCI   7
EAGLE RIVER    CLOUDY    16  11  82 N9        29.62R WCI   5
LAND O LAKES   CLOUDY    17  13  88 N6        29.65R WCI   8
RHINELANDER    LGT SNOW  17  14  88 N8        29.62R FOG     WCI   7
PHILLIPS       CLOUDY    15  12  89 N7        29.65R WCI   5
ANTIGO         LGT SNOW  16  13  88 N14       29.59R WCI   2
TOMAHAWK       CLOUDY    17  13  86 N6        29.64R WCI   8
MERRILL        LGT SNOW  18  14  85 NE10      29.61R WCI   6
$$

WIZ013-073-140000-
NORTHEAST WISCONSIN

CITY           SKY/WX    TMP DP  RH WIND       PRES   REMARKS
IRON MOUNTAIN  LGT SNOW  16  11  80 N10       29.63R WCI   4
MARINETTE      LGT SNOW  19  16  88 N14G23    29.63R FOG     WCI   6
OCONTO         CLOUDY    22  20  89 N15       29.59R VSB 1   WCI   9
$$

WIZ017-030-035>037-045-140000-
CENTRAL WISCONSIN

CITY           SKY/WX    TMP DP  RH WIND       PRES   REMARKS
MEDFORD        CLOUDY    17  13  82 N10       29.62R WCI   5
WAUSAU         LGT SNOW  19  14  81 N12G18    29.59R WCI   7
MOSINEE        LGT SNOW  19  18  93 N14       29.60R WCI   6
MARSHFIELD     CLOUDY    19  15  84 N12       29.59R WCI   7
WISC RAPIDS    LGT SNOW  21  17  84 N12       29.59R FOG     WCI   9
STEVENS POINT  MIX PCPN  19  17  90 N14G20    29.58R WCI   6
WAUPACA        LGT SNOW  25  21  84 N14G20    29.56R
SHAWANO        LGT SNOW  22  18  85 N17G24    29.58R WCI   7
CLINTONVILLE   NOT AVBL
WAUTOMA        LGT SNOW  24  21  88 N14G20    29.54R FOG
$$

WIZ038-039-048-051-140000-
FOX VALLEY

CITY           SKY/WX    TMP DP  RH WIND       PRES   REMARKS
NWS GREEN BAY  LGT SNOW  25  21  85 NE24      29.56R VSB 1   WCI   9
APPLETON       LGT SNOW  25  21  86 NE18G25   29.50R
OSHKOSH        LGT SNOW  26  23  88 N21       29.51R FOG
FOND DU LAC    LGT SNOW  26  22  84 N17G25    29.50R FOG
$$

WIZ022-050-052-140000-
EAST CENTRAL WISCONSIN

CITY           SKY/WX    TMP DP  RH WIND       PRES   REMARKS
EPHRAIM        LGT SNOW  21  18  88 NE15G24   29.59R WCI   7
WASHINGTON ISL LGT SNOW  19  15  85 NE16G26   29.62R WCI   4
STURGEON BAY   LGT SNOW  23  21  93 NE17      29.58R FOG     WCI   9
MANITOWOC      LGT SNOW  24  22  91 NE7       29.51R FOG
SHEBOYGAN      LGT SNOW  26  25  96 NE15      29.46R VSB 1
$$

LMZ563-521-522-541>543-140000-
LAKESHORE

STATION/POSITION TIME  TEMP    WIND        PRES    VSBY  WAVE
                       AIR SEA DIR/SP/G                  HT/PER
                 (UTC) (F)     (DEG/KT/KT) (MB)    (MI)  (FT/S)
SHEBOYGAN LKSHOR 2300   27      40/ 24/ 27  998.4R
KEWAUNEE LKSHORE 2248   26                  999.2R
NORTHPORT PIER   2247   22      20/ 17/ 25 1003.0R
MENOMINEE LKSHOR 2248   24                 1002.0R
$$




USA.gov is the U.S. government's official web portal to all federal, state and local government web resources and services.